Regional Weather Roundup
Issued by NWS Cleveland, OH

Home | Current Version | Previous Version | Graphics & Text | Print | Product List | Glossary On
Versions: 1 2 3 4 5 6 7 8 9 10 11 12 13 14 15 16 17 18 19 20 21 22 23 24 25 26 27 28 29 30 31 32 33 34 35 36 37 38 39 40 41 42 43 44 45 46 47 48 49 50
472
ASUS41 KCLE 240600
RWRCLE
OHIO REGIONAL WEATHER ROUNDUP
NATIONAL WEATHER SERVICE WILMINGTON, OH
200 AM EDT THU MAY 24 2018

NOTE: "FAIR" INDICATES FEW OR NO CLOUDS BELOW 12,000 FEET WITH NO
SIGNIFICANT WEATHER AND/OR OBSTRUCTIONS TO VISIBILITY.

OHZ001>008-015>018-024>027-034-035-043-044-240700-
   NORTHWEST OHIO

CITY           SKY/WX    TMP DP  RH WIND       PRES   REMARKS
DEFIANCE       FAIR      57  52  83 CALM      30.20S
FINDLAY        FAIR      59  52  77 CALM      30.20S
TOLEDO EXPRESS FAIR      57  56  96 CALM      30.20S
TOLEDO EXEC    FAIR      62  51  67 CALM      30.21S
LIMA           FAIR      57  51  80 CALM      30.21F
$$

OHZ009>014-019>023-028>033-038-089-240700-
   NORTHEAST OHIO

CITY           SKY/WX    TMP DP  RH WIND       PRES   REMARKS
CLE-HOPKINS    FAIR      57  53  86 S5        30.22S
CLE-LAKEFRONT  FAIR      61  53  75 S5        30.19S
CUY CO. ARPT   NOT AVBL
LORAIN-ELYRIA  FAIR      55  49  80 VRB3      30.21S
ASHTABULA      FAIR      51  51 100 CALM      30.21S
AKRON-CANTON   FAIR      59  49  69 CALM      30.22S
WOOSTER        NOT AVBL
MANSFIELD      FAIR      57  52  83 CALM      30.22S
YOUNGSTOWN     FAIR      53  51  93 CALM      30.21R
$$

OHZ042-051>053-060>062-070>072-077>081-240700-
  SOUTHWEST OHIO

CITY           SKY/WX    TMP DP  RH WIND       PRES   REMARKS
CINC-COVINGTON FAIR      66  56  70 E8        30.18F
CINC-LUNKEN    FAIR      59  59 100 CALM      30.19F
HAMILTON       FAIR      60  59  96 CALM      30.20F
DAYTON         NOT AVBL
WRIGHT-PAT AFB FAIR      62  53  72 CALM      30.20F
DAYTON GENERAL FAIR      62  54  74 E5        30.20S
WILMINGTON     FAIR      59  59 100 NE5       30.20S
$$

OHZ036-037-039>041-045>050-054>059-063>069-073>076-082>088-240700-
  CENTRAL AND SOUTHEAST OHIO

CITY           SKY/WX    TMP DP  RH WIND       PRES   REMARKS
COLUMBUS       FAIR      61  53  75 CALM      30.20S
OSU AIRPORT    FAIR      60  52  74 N3        30.21S
BOLTON FIELD   NOT AVBL
RICKENBACK AFB NOT AVBL
NEWARK         FAIR      56  54  93 CALM      30.21S
MARION         FAIR      57  52  83 S3        30.22S
LANCASTER      FAIR      56  55  97 CALM      30.21S
ZANESVILLE     FAIR      55  53  93 CALM      30.21R
NEW PHILLY     FAIR      55  53  93 CALM      30.22R
$$




USA.gov is the U.S. government's official web portal to all federal, state and local government web resources and services.